Regional Weather Roundup
Issued by NWS Green Bay, WI

Home | Current Version | Previous Version | Text Only | Print | Product List | Glossary On
Versions: 1 2 3 4 5 6 7 8 9 10 11 12 13 14 15 16 17 18 19 20 21 22 23 24 25 26 27 28 29 30 31 32 33 34 35 36 37 38 39 40 41 42 43 44 45 46 47 48 49 50
000
ASUS43 KGRB 280159
RWRGRB

NORTH-CENTRAL AND NORTHEAST WISCONSIN REGIONAL WEATHER ROUNDUP
NATIONAL WEATHER SERVICE GREEN BAY WI
800 PM CST TUE JAN 27 2015

WIZ005-009-010>012-018-019-280300-
NORTH CENTRAL WISCONSIN

CITY           SKY/WX    TMP DP  RH WIND       PRES   REMARKS
IRONWOOD       CLOUDY    25  23  93 SW7       30.12S
MANITOWISH WTR NOT AVBL
ARBOR VITAE    NOT AVBL
EAGLE RIVER    NOT AVBL
LAND O LAKES   NOT AVBL
RHINELANDER    CLOUDY    22  17  81 CALM      30.15F
PHILLIPS       NOT AVBL
ANTIGO         NOT AVBL
TOMAHAWK       NOT AVBL
MERRILL        NOT AVBL
$$

WIZ013-073-280300-
NORTHEAST WISCONSIN

CITY           SKY/WX    TMP DP  RH WIND       PRES   REMARKS
IRON MOUNTAIN  CLOUDY    22  17  81 S3        30.17F
MARINETTE      CLOUDY    19  16  86 CALM      30.24S
$$

WIZ017-030-035>037-045-280300-
CENTRAL WISCONSIN

CITY           SKY/WX    TMP DP  RH WIND       PRES   REMARKS
MEDFORD        NOT AVBL
WAUSAU         CLOUDY    24  19  81 SE5       30.17S
MOSINEE        CLOUDY    23  21  93 SE5       30.19S
MARSHFIELD     CLOUDY    25  21  85 S6        30.18R
WISC RAPIDS    CLOUDY    25  21  85 SE3       30.21R
STEVENS POINT  NOT AVBL
WAUPACA        NOT AVBL
SHAWANO        NOT AVBL
CLINTONVILLE   NOT AVBL
$$

WIZ038-039-048-051-280300-
FOX VALLEY

CITY           SKY/WX    TMP DP  RH WIND       PRES   REMARKS
NWS GREEN BAY  MOCLDY    16  13  88 CALM      30.23F
APPLETON       CLOUDY    25  16  68 VRB5      30.21F
OSHKOSH        CLOUDY    25  17  72 CALM      30.22F
FOND DU LAC    CLOUDY    25  18  74 CALM      30.21F
$$

WIZ022-050-052-280300-
EAST CENTRAL WISCONSIN

CITY           SKY/WX    TMP DP  RH WIND       PRES   REMARKS
STURGEON BAY   PTCLDY    14  10  85 CALM      30.24F
MANITOWOC      NOT AVBL
SHEBOYGAN      CLOUDY    26  17  68 NE5       30.24F
$$

LMZ563-521-522-541>543-280300-
LAKESHORE

STATION/POSITION TIME  TEMP    WIND        PRES    VSBY  WAVE
                       AIR SEA DIR/SP/G                  HT/PER
                 (UTC) (F)     (DEG/KT/KT) (MB)    (MI)  (FT/S)
SHEBOYGAN LKSHOR 0100   27      40/  4/  5 1025.6R
KEWAUNEE LKSHORE 0100   25      CALM  /  1 1023.2F
NORTHPORT PIER   0100   19      CALM  /  2 1024.4S
SISTER BAY LKSHO 0100   16        CALM       N/A
STURGEON BAY CG  0100   17     300/  4     1024.3      6   0
CHAMBERS ISLAND  0100   19     120/  2/  4 1024.0F
MENOMINEE LKSHOR 0100   20     130/  3     1024.4F
$$


USA.gov is the U.S. government's official web portal to all federal, state and local government web resources and services.